Regional Weather Roundup
Issued by NWS Green Bay, WI

Home | Current Version | Previous Version | Graphics & Text | Print | Product List | Glossary Off
Versions: 1 2 3 4 5 6 7 8 9 10 11 12 13 14 15 16 17 18 19 20 21 22 23 24 25 26 27 28 29 30 31 32 33 34 35 36 37 38 39 40 41 42 43 44 45 46 47 48 49 50

000
ASUS43 KGRB 181510
RWRGRB

NORTH-CENTRAL AND NORTHEAST WISCONSIN REGIONAL WEATHER ROUNDUP
NATIONAL WEATHER SERVICE GREEN BAY WI
1000 AM CDT SAT APR 18 2015

WIZ005-009-010>012-018-019-181600-
NORTH CENTRAL WISCONSIN

CITY           SKY/WX    TMP DP  RH WIND       PRES   REMARKS
IRONWOOD       SUNNY     45  32  61 E12G18    30.19S
MANITOWISH WTR SUNNY     46  31  57 E9        30.19F
ARBOR VITAE    SUNNY     48  31  52 E8        30.19R HAZE
EAGLE RIVER    SUNNY     46  29  51 E8        30.20S
LAND O LAKES   SUNNY     47  31  55 E8        30.22R
RHINELANDER    SUNNY     49  30  48 E15       30.19R
PHILLIPS       SUNNY     50  30  45 E10       30.16S
ANTIGO         SUNNY     51  30  44 E14G20    30.18R
TOMAHAWK       SUNNY     50  31  48 NE7       30.18S
MERRILL        SUNNY     53  31  43 E13       30.16F
$$

WIZ013-073-181600-
NORTHEAST WISCONSIN

CITY           SKY/WX    TMP DP  RH WIND       PRES   REMARKS
IRON MOUNTAIN  SUNNY     46  32  58 VRB7      30.22S
MARINETTE      SUNNY     48  34  57 E12       30.20F
OCONTO         SUNNY     50  34  53 E10G18    30.21R
$$

WIZ017-030-035>037-045-181600-
CENTRAL WISCONSIN

CITY           SKY/WX    TMP DP  RH WIND       PRES   REMARKS
MEDFORD        SUNNY     52  32  46 NE12      30.14S
WAUSAU         SUNNY     54  31  41 E17       30.14F
MOSINEE        SUNNY     54  30  40 E14G20    30.16S
MARSHFIELD     SUNNY     56  30  37 E15G24    30.14R
WISC RAPIDS    SUNNY     57  30  35 E15G25    30.16R
STEVENS POINT  SUNNY     53  32  44 E13       30.16S
WAUPACA        SUNNY     55  33  42 NE13G18   30.18S
SHAWANO        SUNNY     53  36  53 E14G21    30.20R
CLINTONVILLE   SUNNY     52  32  46 E13G20    30.19R
$$

WIZ038-039-048-051-181600-
FOX VALLEY

CITY           SKY/WX    TMP DP  RH WIND       PRES   REMARKS
NWS GREEN BAY  SUNNY     47  37  68 NE24G36   30.20R
APPLETON       MOSUNNY   50  34  53 NE20G29   30.18R
OSHKOSH        SUNNY     52  37  56 NE15      30.17R
FOND DU LAC    SUNNY     55  36  48 NE20      30.16R
$$

WIZ022-050-052-181600-
EAST CENTRAL WISCONSIN

CITY           SKY/WX    TMP DP  RH WIND       PRES   REMARKS
STURGEON BAY   SUNNY     45  36  70 N10       30.22S
MANITOWOC      SUNNY     47  36  65 NE16G25   30.20R
SHEBOYGAN      SUNNY     49  37  63 NE26G37   30.17R
$$

LMZ563-521-522-541>543-181600-
LAKESHORE

STATION/POSITION TIME  TEMP    WIND        PRES    VSBY  WAVE
                       AIR SEA DIR/SP/G                  HT/PER
                 (UTC) (F)     (DEG/KT/KT) (MB)    (MI)  (FT/S)
SHEBOYGAN LKSHOR 1500   40      10/ 23/ 26 1022.4R
KEWAUNEE LKSHORE 1500   43      40/ 18/ 22 1021.7
NORTHPORT PIER   1500   42     360/ 14/ 17 1023.4S
SISTER BAY LKSHO 1500   46     360/ 17/ 21   N/A
STURGEON BAY CG  1500   48      40/ 11     1022.2      6   1
CHAMBERS ISLAND  1500   40      20/  9/ 12 1023.7R
MENOMINEE LKSHOR 1500   42      20/ 19/ 21 1023.4S
$$



USA.gov is the U.S. government's official web portal to all federal, state and local government web resources and services.